This demonstration page uses our WeatherBlox Daily Observations layout. Learn more.

38.80484, -77.04692

Hourly Observations for April 22, 2019

Temp ( °F °C ) Dew Point ( °F °C ) Humidity (%) Winds ( mph kmh ) Pressure ( in mb ) Visibility ( mi km ) Precip ( " mm )
12:52 am 00:52 Mostly Cloudy 60 15.6 44 6.7 56 56 NNW 14 22 30.1 1019 10 16.0934 0 0
1:52 am 01:52 Partly Cloudy 58 14.4 43 6.1 58 58 NNW 10 17 30.09 1019 10 16.0934 0 0
2:52 am 02:52 Mostly Cloudy 58 14.4 43 6.1 58 58 NNW 12 19 30.07 1018 10 16.0934 0 0
3:52 am 03:52 Partly Cloudy 56 13.3 42 5.6 60 60 NNW 10 17 30.08 1019 10 16.0934 0 0
4:52 am 04:52 Mostly Cloudy 55 12.8 42 5.6 62 62 NW 8 13 30.08 1019 10 16.0934 0 0
5:52 am 05:52 Cloudy 56 13.3 43 6.1 62 62 NW 12 19 30.11 1020 10 16.0934 0 0
6:52 am 06:52 Mostly Cloudy 56 13.3 44 6.7 65 65 NNW 12 19 30.11 1020 10 16.0934 0 0
7:52 am 07:52 Cloudy 57 13.9 44 6.7 62 62 NNW 9 15 30.14 1021 10 16.0934 0 0
8:52 am 08:52 Mostly Cloudy 59 15 45 7.2 60 60 NW 15 24 30.14 1021 10 16.0934 0 0
9:52 am 09:52 Mostly Cloudy 63 17.2 47 8.3 56 56 NNW 17 28 30.14 1021 10 16.0934 0 0
10:52 am 10:52 Mostly Cloudy 65 18.3 47 8.3 52 52 NW 16 26 30.15 1021 10 16.0934 0 0
11:52 am 11:52 Mostly Cloudy 67 19.4 49 9.4 53 53 NW 13 20 30.14 1021 10 16.0934 0 0
12:52 pm 12:52 Mostly Cloudy 69 20.6 48 8.9 47 47 NNW 15 24 30.12 1020 10 16.0934 0 0
1:52 pm 13:52 Partly Cloudy 70 21.1 49 9.4 47 47 NW 13 20 30.1 1019 10 16.0934 0 0
2:52 pm 14:52 Partly Cloudy 71 21.7 48 8.9 44 44 NW 14 22 30.08 1019 10 16.0934 0 0
3:52 pm 15:52 Mostly Cloudy 71 21.7 47 8.3 42 42 N 12 19 30.06 1018 10 16.0934 0 0
4:52 pm 16:52 Mostly Cloudy 73 22.8 48 8.9 41 41 NNW 12 19 30.05 1018 10 16.0934 0 0
5:52 pm 17:52 Mostly Cloudy 73 22.8 47 8.3 40 40 NW 17 28 30.05 1018 10 16.0934 0 0
6:52 pm 18:52 Mostly Cloudy 73 22.8 46 7.8 38 38 NW 12 19 30.05 1018 10 16.0934 0 0
7:52 pm 19:52 Partly Cloudy 71 21.7 45 7.2 39 39 NW 9 15 30.06 1018 10 16.0934 0 0
8:52 pm 20:52 Partly Cloudy 69 20.6 45 7.2 42 42 WNW 6 9 30.07 1018 10 16.0934 0 0
9:52 pm 21:52 Mostly Clear 65 18.3 51 10.6 61 61 Calm 30.08 1019 10 16.0934 0 0
10:52 pm 22:52 Clear 63 17.2 52 11.1 68 68 Calm 30.08 1019 10 16.0934 0 0
11:52 pm 23:52 Clear 62 16.7 53 11.7 73 73 S 7 11 30.08 1019 10 16.0934 0 0

Powered by AerisWeather